GW5356 Weather Reports


time (UTC)temp
C
wind
direction
speed
KPH
gust
KPH
rain 1hr
cm
rain 24hr
cm
rain mn
cm
humidity
%
barometer
mb
20260504183053 -17 0.0 0.0 0.00 0.00 0.00 1014.6
20260504181552 23 42 4.8 9.7 0.00 0.00 0.00 1014.9
20260504180052 -17 0.0 0.0 0.00 0.00 0.00 1014.9
20260504174557 -17 0.0 0.0 0.00 0.00 0.00 1015.1
20260504173056 -17 0.0 0.0 0.00 0.00 0.00 1015.3
20260504171559 -17 0.0 0.0 0.00 0.00 0.00 1015.1
20260504160117 21 75 1.6 9.7 0.00 0.00 0.00 37 1016.3
20260504150111 -17 50 3.2 0.0 0.00 0.00 0.00 1017.2
20260504081556 7 65 1.6 4.8 0.00 0.00 0.00 73 1016.2
20260504080113 8 0 0.0 1.6 0.00 0.00 0.00 72 1016.1
20260504044555 9 0 0.0 1.6 0.00 0.00 0.00 67 1016.5
20260504043111 10 73 0.0 1.6 0.00 0.00 0.00 65 1016.6
20260504041557 10 0 0.0 1.6 0.00 0.00 0.00 67 1016.3
20260504040123 10 0 0.0 0.0 0.00 0.00 0.00 66 1016.1
20260504034551 10 0 0.0 0.0 0.00 0.00 0.00 65 1016.2
20260504033056 10 0 0.0 0.0 0.00 0.00 0.00 62 1016.3
20260504031559 11 0 0.0 1.6 0.00 0.00 0.00 61 1016.4
20260504030056 11 0 0.0 1.6 0.00 0.00 0.00 60 1016.5
20260504024557 11 0 0.0 1.6 0.00 0.00 0.00 57 1016.4
20260504023101 12 0 0.0 1.6 0.00 0.00 0.00 54 1016.5
20260504021554 12 0 0.0 1.6 0.00 0.00 0.00 53 1016.2
20260504020054 13 0.0 1.6 0.00 0.00 0.00 50 1016.1
20260504014601 13 128 0.0 1.6 0.00 0.00 0.00 50 1015.8
20260504013100 13 0 0.0 0.0 0.00 0.00 0.00 49 1015.4
20260504011552 13 0 0.0 0.0 0.00 0.00 0.00 49 1015.4
20260504010057 13 0 0.0 1.6 0.00 0.00 0.00 47 1015.3
20260504004553 15 0 0.0 1.6 0.00 0.00 0.00 45 1015.2
20260504003101 15 0 0.0 1.6 0.00 0.00 0.00 43 1015.1
20260504001607 16 208 0.0 1.6 0.00 0.00 0.00 41 1014.9
20260504000130 16 208 0.0 1.6 0.00 0.00 0.00 39 1014.9
20260503234556 17 141 0.0 1.6 0.00 0.00 0.00 37 1014.9
20260503233057 17 223 0.0 1.6 0.00 0.00 0.00 35 1014.7
20260503231555 17 236 0.0 1.6 0.00 0.00 0.00 33 1014.7
20260503230100 18 349 1.6 4.8 0.00 0.00 0.00 30 1014.7
20260503224554 18 28 1.6 6.4 0.00 0.00 0.00 29 1014.7
20260503223053 18 328 1.6 6.4 0.00 0.00 0.00 29 1014.9
20260503221557 18 94 1.6 6.4 0.00 0.00 0.00 28 1014.8
20260503220057 18 262 1.6 6.4 0.00 0.00 0.00 27 1015.0
20260503214553 18 346 1.6 8.0 0.00 0.00 0.00 28 1015.2
20260503213054 18 359 1.6 6.4 0.00 0.00 0.00 28 1015.4
20260503211554 18 25 1.6 12.9 0.00 0.00 0.00 28 1015.5
20260503210057 18 350 1.6 11.3 0.00 0.00 0.00 29 1015.6
20260503204553 18 73 3.2 11.3 0.00 0.00 0.00 29 1015.8
20260503203100 17 14 4.8 9.7 0.00 0.00 0.00 29 1016.0
20260503201601 17 243 1.6 8.0 0.00 0.00 0.00 29 1016.2
20260503200058 17 115 3.2 14.5 0.00 0.00 0.00 29 1016.5
20260503194600 17 101 3.2 12.9 0.00 0.00 0.00 30 1016.5
20260503193104 18 335 3.2 11.3 0.00 0.00 0.00 31 1016.8
20260503191604 18 27 4.8 12.9 0.00 0.00 0.00 29 1016.9
20260503190052 18 1.6 0.0 0.00 0.00 0.00 26 1017.1
20260503184552 18 78 0.0 1.6 0.00 0.00 0.00 27 1017.3